Santa Rosa, CA

12:42 PM PDT on June 22, 2018 (GMT -0700)
Sonoma County

Weather History for KSTS - November, 2017

Change the Weather History Date:

Friday, November 24, 2017

  Actual Average Record
Temperature  
Mean Temperature 59 °F 50 °F  
Max Temperature 66 °F 61 °F 70 °F (2012)
Min Temperature 52 °F 39 °F 28 °F (2010)
Degree Days  
Heating Degree Days 6    
Month to date heating degree days 260  
Since 1 July heating degree days 377  
Cooling Degree Days 0    
Month to date cooling degree days 0  
Year to date cooling degree days 635  
Growing Degree Days 9 (Base 50)    
Moisture  
Dew Point 56 °F    
Average Humidity 87    
Maximum Humidity 100    
Minimum Humidity 73    
Precipitation  
Precipitation 0.00 in 0.17 in 1.21 in (2001)
Month to date precipitation 4.93 3.61  
Year to date precipitation 47.12 28.17  
Sea Level Pressure  
Sea Level Pressure 30.04 in    
Wind  
Wind Speed 1 mph (NW)    
Max Wind Speed 9 mph    
Max Gust Speed 9 mph    
Visibility 6 miles    
Events Fog    
T = Trace of Precipitation, MM = Missing Value Source: NWS Daily Summary

Daily Weather History Graph

Daily Weather History Graph

Search for Another Location

Airport or City:

Astronomy

Nov. 24, 2017 Rise Set
Actual Time 7:03 AM PST 4:52 PM PST
Civil Twilight 6:34 AM PST 5:21 PM PST
Nautical Twilight 6:01 AM PST 5:54 PM PST
Astronomical Twilight 5:29 AM PST 6:25 PM PST
Moon 11:47 AM PST (11/24) 10:18 PM PST (11/24)
Length of Visible Light 10h 47m
Length of Day
9h 49m
Waxing Crescent, 32% of the Moon is Illuminated
Nov 24
Waxing Crescent
Nov 26
First Quarter
Dec 3
Full
Dec 9
Last Quarter
Dec 17
New

Hourly Weather History & Observations

Time (PST) Temp. Dew Point Humidity Pressure Visibility Wind Dir Wind Speed Gust Speed Precip Events Conditions
12:53 AM 55.0 °F 55.0 °F 100% 30.09 in 0.2 mi Calm Calm - N/A Fog Fog
1:53 AM 55.0 °F 55.0 °F 100% 30.09 in 0.2 mi Calm Calm - N/A Fog Fog
2:13 AM 55.0 °F 55.0 °F 100% 30.10 in 0.5 mi Calm Calm - N/A Fog Fog
2:53 AM 55.0 °F 55.0 °F 100% 30.09 in 0.2 mi Calm Calm - N/A Fog Fog
3:53 AM 54.0 °F 54.0 °F 100% 30.07 in 0.2 mi Calm Calm - N/A Fog Fog
4:53 AM 54.0 °F 54.0 °F 100% 30.07 in 0.2 mi Calm Calm - N/A Fog Fog
5:53 AM 53.1 °F 53.1 °F 100% 30.07 in 0.2 mi Calm Calm - N/A Fog Fog
6:53 AM 52.0 °F 52.0 °F 100% 30.08 in 0.2 mi Calm Calm - N/A Fog Fog
7:53 AM 52.0 °F 52.0 °F 100% 30.09 in 0.2 mi NW 3.5 mph - N/A Fog Fog
8:53 AM 53.1 °F 53.1 °F 100% 30.09 in 0.2 mi Calm Calm - N/A Fog Fog
9:53 AM 55.0 °F 55.0 °F 100% 30.08 in 0.5 mi Calm Calm - N/A Fog Fog
10:53 AM 57.9 °F 57.9 °F 100% 30.06 in 5.0 mi Calm Calm - N/A Fog Patches of Fog
11:53 AM 62.1 °F 57.9 °F 86% 30.04 in 10.0 mi Calm Calm - N/A Fog Patches of Fog
12:53 PM 64.0 °F 57.9 °F 80% 30.01 in 10.0 mi Calm Calm - N/A Fog Patches of Fog
1:53 PM 64.9 °F 57.9 °F 78% 30.01 in 10.0 mi NW 3.5 mph - N/A   Mostly Cloudy
2:53 PM 66.0 °F 57.9 °F 75% 30.00 in 10.0 mi Calm Calm - N/A   Mostly Cloudy
3:53 PM 64.9 °F 59.0 °F 81% 30.00 in 10.0 mi Calm Calm - N/A   Mostly Cloudy
4:53 PM 63.0 °F 57.9 °F 84% 29.98 in 10.0 mi Calm Calm - N/A   Mostly Cloudy
5:53 PM 60.1 °F 57.9 °F 93% 29.98 in 10.0 mi Calm Calm - N/A   Mostly Cloudy
6:53 PM 57.9 °F 57.0 °F 97% 29.99 in 10.0 mi West 4.6 mph - N/A   Mostly Cloudy
7:53 PM 57.9 °F 57.9 °F 100% 29.99 in 10.0 mi Calm Calm - N/A   Clear
8:53 PM 57.0 °F 55.9 °F 96% 30.02 in 10.0 mi NW 4.6 mph - N/A   Clear
9:53 PM 55.9 °F 55.9 °F 100% 30.02 in 10.0 mi West 3.5 mph - N/A   Clear
10:53 PM 55.9 °F 55.0 °F 97% 30.03 in 10.0 mi North 3.5 mph - N/A   Clear
11:53 PM 55.9 °F 55.9 °F 100% 29.97 in 10.0 mi North 6.9 mph - N/A   Mostly Cloudy